• In Germany
  • List of Countries
  • For 7 days
  • Water Temperature
  • Satellite Maps
  • Weather Map
  • Weather Widgets
  • user-avatar
    Login

    Hourly Weather La Rioja

    Today, 26 September, Tuesday

    Time Temperature Precipitation Wind Pressure Humidity
    00:00 +26°C° 0 mm 2 mps 716 mmHg 51%
    01:00 +25°C° 0 mm 2 mps 715 mmHg 54%
    02:00 +25°C° 0 mm 2 mps 715 mmHg 57%
    03:00 +24°C° 0 mm 2 mps 715 mmHg 60%
    04:00 +24°C° 0 mm 2 mps 714 mmHg 63%
    05:00 +23°C° 0 mm 2 mps 714 mmHg 66%
    06:00 +24°C° 0 mm 2 mps 714 mmHg 65%
    07:00 +25°C° 0 mm 2 mps 715 mmHg 63%
    08:00 +25°C° 0 mm 2 mps 715 mmHg 61%
    09:00 +27°C° 0 mm 2 mps 715 mmHg 56%
    10:00 +28°C° 0 mm 2 mps 714 mmHg 51%
    11:00 +30°C° 0 mm 2 mps 714 mmHg 45%
    12:00 +31°C° 0 mm 2 mps 713 mmHg 41%
    13:00 +33°C° 0 mm 3 mps 713 mmHg 38%
    14:00 +34°C° 0 mm 3 mps 712 mmHg 34%
    15:00 +34°C° 0.1 mm 3 mps 712 mmHg 34%
    16:00 +34°C° 0.1 mm 4 mps 712 mmHg 34%
    17:00 +34°C° 0.1 mm 4 mps 712 mmHg 34%
    18:00 +32°C° 0.1 mm 6 mps 713 mmHg 40%
    19:00 +29°C° 0.1 mm 7 mps 713 mmHg 46%
    20:00 +27°C° 0.1 mm 8 mps 714 mmHg 51%
    21:00 +24°C° 0.3 mm 7 mps 715 mmHg 54%
    22:00 +23°C° 0.3 mm 6 mps 715 mmHg 56%
    23:00 +22°C° 0.3 mm 5 mps 716 mmHg 58%

    Tomorrow, 27 September, Wednesday

    Time Temperature Precipitation Wind Pressure Humidity
    00:00 +21°C° 0.4 mm 5 mps 716 mmHg 62%
    01:00 +20°C° 0.4 mm 5 mps 716 mmHg 65%
    02:00 +19°C° 0.4 mm 5 mps 716 mmHg 68%
    03:00 +17°C° 0.2 mm 5 mps 716 mmHg 68%
    04:00 +16°C° 0.2 mm 5 mps 716 mmHg 69%
    05:00 +16°C° 0.2 mm 5 mps 717 mmHg 69%
    06:00 +17°C° 0.1 mm 4 mps 717 mmHg 68%
    07:00 +17°C° 0.1 mm 4 mps 718 mmHg 67%
    08:00 +17°C° 0.1 mm 4 mps 718 mmHg 66%
    09:00 +18°C° 0 mm 4 mps 718 mmHg 63%
    10:00 +18°C° 0 mm 4 mps 718 mmHg 60%
    11:00 +19°C° 0 mm 4 mps 718 mmHg 57%
    12:00 +20°C° 0 mm 4 mps 717 mmHg 56%
    13:00 +20°C° 0 mm 4 mps 716 mmHg 55%
    14:00 +21°C° 0 mm 4 mps 716 mmHg 54%
    15:00 +20°C° 0 mm 4 mps 715 mmHg 57%
    16:00 +20°C° 0 mm 4 mps 714 mmHg 60%
    17:00 +20°C° 0 mm 4 mps 714 mmHg 62%
    18:00 +19°C° 0 mm 3 mps 715 mmHg 66%
    19:00 +18°C° 0 mm 3 mps 716 mmHg 69%
    20:00 +18°C° 0 mm 2 mps 716 mmHg 73%
    21:00 +18°C° 0 mm 2 mps 717 mmHg 73%
    22:00 +17°C° 0 mm 2 mps 717 mmHg 74%
    23:00 +17°C° 0 mm 2 mps 717 mmHg 75%

    Day after tomorrow, 28 September, Thursday

    Time Temperature Precipitation Wind Pressure Humidity
    00:00 +17°C° 0 mm 2 mps 717 mmHg 77%
    01:00 +17°C° 0 mm 2 mps 717 mmHg 78%
    02:00 +17°C° 0 mm 2 mps 716 mmHg 79%
    03:00 +17°C° 0 mm 2 mps 716 mmHg 80%
    04:00 +17°C° 0 mm 2 mps 716 mmHg 81%
    05:00 +17°C° 0 mm 2 mps 716 mmHg 82%
    06:00 +17°C° 0 mm 2 mps 716 mmHg 81%
    07:00 +17°C° 0 mm 2 mps 716 mmHg 79%
    08:00 +18°C° 0 mm 2 mps 717 mmHg 78%
    09:00 +18°C° 0 mm 2 mps 716 mmHg 74%
    10:00 +19°C° 0 mm 2 mps 716 mmHg 71%
    11:00 +20°C° 0 mm 2 mps 716 mmHg 67%
    12:00 +21°C° 0 mm 3 mps 715 mmHg 63%
    13:00 +22°C° 0 mm 3 mps 714 mmHg 59%
    14:00 +24°C° 0 mm 3 mps 713 mmHg 55%
    15:00 +24°C° 0 mm 3 mps 713 mmHg 56%
    16:00 +23°C° 0 mm 4 mps 712 mmHg 56%
    17:00 +23°C° 0 mm 4 mps 712 mmHg 56%
    18:00 +22°C° 0 mm 4 mps 713 mmHg 62%
    19:00 +21°C° 0 mm 4 mps 714 mmHg 68%
    20:00 +20°C° 0 mm 3 mps 715 mmHg 73%
    21:00 +20°C° 0 mm 3 mps 715 mmHg 76%
    22:00 +19°C° 0 mm 3 mps 715 mmHg 79%
    23:00 +19°C° 0 mm 2 mps 715 mmHg 82%

    29 September, Friday

    Time Temperature Precipitation Wind Pressure Humidity
    00:00 +19°C° 0 mm 2 mps 715 mmHg 82%
    01:00 +19°C° 0 mm 1 mps 715 mmHg 83%
    02:00 +19°C° 0 mm 1 mps 714 mmHg 84%
    03:00 +19°C° 0 mm 1 mps 714 mmHg 84%
    04:00 +18°C° 0 mm 1 mps 714 mmHg 85%
    05:00 +18°C° 0 mm 1 mps 714 mmHg 86%
    06:00 +19°C° 0 mm 1 mps 714 mmHg 81%
    07:00 +20°C° 0 mm 1 mps 715 mmHg 77%
    08:00 +21°C° 0 mm 1 mps 715 mmHg 72%
    09:00 +21°C° 0 mm 2 mps 715 mmHg 65%
    10:00 +23°C° 0 mm 2 mps 715 mmHg 59%
    11:00 +25°C° 0 mm 2 mps 714 mmHg 52%
    12:00 +26°C° 0 mm 2 mps 714 mmHg 48%
    13:00 +27°C° 0 mm 3 mps 713 mmHg 44%
    14:00 +28°C° 0 mm 3 mps 712 mmHg 39%
    15:00 +28°C° 0 mm 3 mps 711 mmHg 39%
    16:00 +29°C° 0 mm 3 mps 711 mmHg 38%
    17:00 +29°C° 0 mm 3 mps 710 mmHg 37%
    18:00 +28°C° 0 mm 3 mps 711 mmHg 41%
    19:00 +27°C° 0 mm 3 mps 711 mmHg 44%
    20:00 +26°C° 0 mm 2 mps 711 mmHg 48%
    21:00 +25°C° 0 mm 2 mps 711 mmHg 52%
    22:00 +24°C° 0 mm 2 mps 711 mmHg 56%
    23:00 +23°C° 0 mm 2 mps 711 mmHg 60%

    30 September, Saturday

    Time Temperature Precipitation Wind Pressure Humidity
    00:00 +23°C° 0 mm 2 mps 711 mmHg 60%
    01:00 +23°C° 0 mm 2 mps 710 mmHg 61%
    02:00 +21°C° 0 mm 2 mps 710 mmHg 62%
    03:00 +21°C° 0 mm 2 mps 710 mmHg 59%
    04:00 +21°C° 0 mm 2 mps 709 mmHg 56%
    05:00 +21°C° 0 mm 3 mps 709 mmHg 53%
    06:00 +24°C° 0 mm 3 mps 709 mmHg 46%
    07:00 +25°C° 0 mm 3 mps 709 mmHg 39%
    08:00 +27°C° 0 mm 4 mps 709 mmHg 31%
    09:00 +30°C° 0 mm 6 mps 708 mmHg 24%
    10:00 +34°C° 0 mm 8 mps 708 mmHg 17%
    11:00 +37°C° 0 mm 10 mps 707 mmHg 9%
    12:00 +38°C° 0 mm 11 mps 706 mmHg 8%
    13:00 +39°C° 0 mm 12 mps 705 mmHg 7%
    14:00 +41°C° 0 mm 13 mps 704 mmHg 5%
    15:00 +41°C° 0 mm 13 mps 703 mmHg 5%
    16:00 +41°C° 0 mm 14 mps 703 mmHg 5%
    17:00 +40°C° 0 mm 15 mps 703 mmHg 4%
    18:00 +37°C° 0 mm 14 mps 703 mmHg 5%
    19:00 +34°C° 0 mm 14 mps 703 mmHg 6%
    20:00 +32°C° 0 mm 13 mps 704 mmHg 6%
    21:00 +29°C° 0 mm 12 mps 704 mmHg 11%
    22:00 +27°C° 0 mm 12 mps 704 mmHg 16%
    23:00 +24°C° 0 mm 11 mps 704 mmHg 21%

    1 October, Sunday

    Time Temperature Precipitation Wind Pressure Humidity
    00:00 +23°C° 0 mm 10 mps 704 mmHg 29%
    01:00 +21°C° 0 mm 9 mps 705 mmHg 37%
    02:00 +18°C° 0 mm 8 mps 705 mmHg 45%
    03:00 +17°C° 0 mm 7 mps 706 mmHg 48%
    04:00 +16°C° 0 mm 6 mps 706 mmHg 51%
    05:00 +17°C° 0 mm 4 mps 707 mmHg 53%
    06:00 +16°C° 0 mm 5 mps 708 mmHg 47%
    07:00 +17°C° 0 mm 5 mps 709 mmHg 41%
    08:00 +17°C° 0 mm 5 mps 710 mmHg 36%
    09:00 +19°C° 0 mm 5 mps 709 mmHg 32%
    10:00 +21°C° 0 mm 4 mps 709 mmHg 28%
    11:00 +22°C° 0 mm 4 mps 709 mmHg 24%
    12:00 +22°C° 0 mm 4 mps 708 mmHg 22%
    13:00 +23°C° 0 mm 4 mps 707 mmHg 21%
    14:00 +25°C° 0 mm 3 mps 706 mmHg 19%
    15:00 +25°C° 0 mm 3 mps 706 mmHg 19%
    16:00 +25°C° 0 mm 3 mps 705 mmHg 19%
    17:00 +25°C° 0 mm 3 mps 705 mmHg 19%
    18:00 +24°C° 0 mm 3 mps 706 mmHg 20%
    19:00 +23°C° 0 mm 2 mps 706 mmHg 22%
    20:00 +21°C° 0 mm 2 mps 707 mmHg 23%
    21:00 +20°C° 0 mm 2 mps 707 mmHg 25%
    22:00 +19°C° 0 mm 2 mps 708 mmHg 26%
    23:00 +20°C° 0 mm 1 mps 708 mmHg 28%
    Show more